DECAYED

STARLINK-2265, 48002 (Decayed)

Orbit data source: Space-Track

STARLINK-2265, 48002 was a payload satellite owned by SpaceX/Seattle (US) in LEO that was launched on Wed, 24 Mar 2021 UTC via an FALCON 9 launch vehicle from the Air Force Eastern Test Range (AFETR). Payload-class satellites include a variety of spacecraft equipped with specific instruments for various scientific and technological missions. These include communications satellites like Starlink; space stations such as the ISS; scientific satellites like the Hubble; Earth observation satellites from companies like Planet Labs, Umbra, and HawkEye 360; GPS; miniature CubeSats for education and research; and military/defense satellites.

Not visible in the next 10 days
Identifier
48002, 2021-024AB
Orbit
Decayed
Country
Flag of USUS
Related business
Manufacturer
SpaceX/Seattle
Mission
Decayed Commercial Communications
Bus & Motor
STARLINK, Unknown motor
Mass
260 kg wet, ~248 kg dry
Launch date (UTC)
2021-03-24 (5 years ago)
Launch vehicle
FALCON 9
Launch site
Air Force Eastern Test Range (AFETR)
Object type
Payload
Rocket body
Debris
Shape & HBR
Box + 1 Pan, 10.1 m
Radar Cross Section
13.562 m², Large (>1 m²)

Expand to show TLE details & history
Last TLE update: 1 year ago

TLE from 1 year ago
0 STARLINK-2265
1 48002U 21024AB  25055.69394880  .13835196  12446-4  83915-3 0  9993
2 48002  53.0251 117.6451 0002919 330.6802 122.7901 16.41481802218671
Epoch: 2025-02-24T16:39Z
TLE epoch observation values (Epoch: 2025-02-24T16:39:17.176Z)
Latitude
53.04216°
Longitude
168.82555°
Altitude
169.341 km
Speed
7.811 km/s
True Right ascension
14h 13m 49s
True Declination
52° 51' 43"
Sunlit
Object was in full shadow at epoch
Visualization orbit readout
Latitude
Unknown
Longitude
Unknown
Altitude
Unknown
Speed
Unknown
Apparent Right ascension
Unknown
Apparent Declination
Unknown
Sunlit
N/A
Visualization observer readout
Local Sidereal Time
19:52:42
Azimuth
Unknown
Elevation
Unknown
Doppler factor
Unknown
Orbital elements
Apogee altitude
164.064 km
Perigee altitude
160.246 km
Semi-major axis
6,540.292 km
Eccentricity
0.00029
Inclination
53.0251°
RAAN
117.6451°
Arg. of periapsis
330.6802°
True anomaly
122.81821°
Mean anomaly
122.7901°
Eccentric anomaly
122.80416°
Mean motion
4.10343 °/min
Orbital period
87.73 mins
BSTAR
0.00083915
Loading maneuver chart data...
Computing Atmospheric mass density...

Documentation

Showing up to 5 results
|